[[{"header":{"parameterUnit":"m.s-1","parameterCategory":1,"la1":30.2991,"la2":30.254,"lo1":-89.0895,"lo2":-89.0444,"dy":0.0017,"dx":0.0017,"nx":28,"ny":28,"refTime":"2023-07-28T21:00:00:Z","depth":0,"parameterNumber":2,"parameterNumberName":"U-component_of_WINDS"},"data":[0,0,0,0,0,0,0,0,0,0,0,0,0,0,0,0,0,0,0,0,0,0,0,0,0,0,0,0,0,0,0,0,0,0,0,0,0,0,0,0,0,0,0,0,0,0,0,0,0,0,0,0,0,0,0,0,0,0,3.1223,3.1223,0,3.1279,3.128,3.1281,3.1204,3.1202,3.1199,3.1196,3.1254,3.1258,3.1262,0,0,0,0,0,0,0,0,0,0,0,0,0,3.105,3.1053,3.1223,3.1224,3.1224,3.1279,3.128,3.1281,3.1205,3.1202,3.1198,3.1195,3.1252,3.1257,3.1262,0,0,0,0,0,0,0,0,0,0,0,0,0,3.1117,3.1054,3.1223,3.1193,3.1191,3.1279,3.128,3.1281,3.1206,3.1202,3.1197,3.1194,3.1251,3.1257,3.1263,3.1382,0,0,3.1281,3.1284,0,0,0,0,0,0,0,0,3.1114,3.1124,3.1197,3.1195,3.1193,3.1231,3.124,3.1315,3.1207,3.12,3.1196,3.1192,3.1249,3.1255,3.1275,3.1385,3.1387,3.1282,3.1286,3.1288,3.129,0,0,0,0,0,0,0,3.1109,3.1121,3.1245,3.1198,3.1196,3.1177,3.1182,3.1254,3.1247,3.12,3.1195,3.1203,3.1247,3.1269,3.1276,3.1388,3.1282,3.1287,3.1291,3.1293,3.16,3.1605,0,0,0,0,0,0,3.1108,3.1118,3.1243,3.1247,3.1142,3.1183,3.1189,3.1223,3.1246,3.1246,3.1206,3.1199,3.1261,3.1269,3.1277,3.1419,3.1288,3.1294,3.1297,3.1596,3.1601,3.1606,0,0,0,0,0,0,3.1104,3.112,3.1241,3.1181,3.1195,3.1191,3.1229,3.1226,3.1247,3.125,3.1249,3.1229,3.1258,3.1269,3.1357,3.142,3.1297,3.1302,3.1591,3.1598,3.1604,3.1704,0,0,0,0,0,0,3.11,3.1119,3.1164,3.1182,3.1198,3.132,3.1233,3.123,3.1258,3.1249,3.1272,3.1272,3.1255,3.1348,3.1363,3.1426,3.1307,3.1585,3.1594,3.1602,3.1695,3.1713,3.1729,0,0,0,0,0,3.1094,3.119,3.1167,3.1182,3.1255,3.1324,3.1333,3.1312,3.1264,3.1309,3.1311,3.1271,3.1411,3.1358,3.1374,3.144,3.1581,3.1591,3.1601,3.1687,3.1709,3.1728,0,0,0,0,0,0,3.1178,3.1191,3.1166,3.1271,3.1297,3.1311,3.1367,3.1337,3.1377,3.1367,3.1339,3.1345,3.144,3.1449,3.1389,3.1557,3.1488,3.1502,3.1548,3.1569,3.1586,3.1581,3.1312,0,0,0,0,0,3.1209,3.1264,3.1273,3.1364,3.1379,3.1371,3.14,3.1383,3.1408,3.1419,3.1427,3.1454,3.1503,3.1537,3.1583,3.1696,3.17,3.1749,3.1766,3.178,3.1792,3.1853,3.1875,3.1639,3.1639,3.1639,0,0,3.1273,3.1287,3.1324,3.1382,3.14,3.1457,3.1381,3.1445,3.1487,3.1428,3.1512,3.152,3.1547,3.1649,3.1694,3.1659,3.1859,3.1793,3.1804,3.1809,3.1866,3.1888,3.1908,3.1646,3.1645,3.1644,0,0,3.1419,3.1436,3.1514,3.1534,3.1563,3.1557,3.1576,3.1596,3.1598,3.1682,3.164,3.169,3.1777,3.1798,3.1821,3.1978,3.1942,3.1994,3.2082,3.2141,3.216,3.2176,3.2232,3.2252,3.2006,3.2006,3.2006,0,3.1495,3.158,3.1558,3.1625,3.1652,3.1603,3.1682,3.1703,3.1745,3.1765,3.1726,3.1834,3.1849,3.1955,3.1994,3.2014,3.2034,3.199,3.2159,3.2175,3.219,3.2243,3.2264,3.2012,3.2011,3.2011,3.201,0,3.1672,3.1732,3.1792,3.1835,3.1869,3.1942,3.1931,3.1968,3.1948,3.1947,3.2034,3.2051,3.2099,3.2124,3.2104,3.2228,3.2205,3.2163,3.2093,3.2219,3.2268,3.2288,3.2021,3.2018,3.2017,3.2015,0,0,3.1871,3.1902,3.1924,3.1943,3.1972,3.2018,3.209,3.2138,3.217,3.2202,3.2261,3.2336,3.2298,3.2324,3.2307,3.236,3.2483,3.2311,3.2311,3.2342,3.262,3.265,3.2674,3.246,3.2464,3.2467,3.2617,0,3.2017,3.214,3.2123,3.2241,3.2297,3.2252,3.2314,3.2339,3.234,3.2387,3.2389,3.2443,3.2388,3.2404,3.2454,3.2457,3.2538,3.2446,3.2515,3.2517,3.2508,3.27,3.2732,3.2873,3.2636,3.264,3.2642,0,3.2203,3.2242,3.2366,3.2387,3.241,3.2466,3.251,3.2556,3.2583,3.2581,3.2611,3.2585,3.2656,3.2586,3.2684,3.2622,3.265,3.2656,3.2661,3.2665,3.2586,3.2709,3.2917,3.2938,3.2672,3.267,3.2667,0,3.2335,3.2419,3.2504,3.2522,3.2549,3.259,3.2603,3.2626,3.2657,3.2695,3.2715,3.2761,3.2787,3.2823,3.2811,3.2761,3.2912,3.284,3.2912,3.2912,3.2944,3.2942,3.3159,3.2964,3.2964,3.2963,3.2963,0,3.2499,3.2576,3.2564,3.2616,3.2702,3.2682,3.2768,3.2776,3.2797,3.2851,3.2815,3.2866,3.2847,3.2897,3.2887,3.2971,3.2982,3.2982,3.2979,3.2985,3.2985,3.3001,3.2991,3.2969,3.2968,3.2967,3.2966,0,3.266,3.2655,3.2745,3.2764,3.277,3.2833,3.2849,3.2899,3.2898,3.2966,3.2981,3.298,3.3037,3.3029,3.3092,3.3086,3.319,3.3175,3.318,3.3176,3.3248,3.3241,3.3482,3.3513,3.3299,3.3301,3.3303,0,3.2764,3.2823,3.2849,3.2882,3.2899,3.2953,3.2984,3.2968,3.3002,3.3039,3.3084,3.3138,3.318,3.3273,3.3278,3.3327,3.3312,3.3393,3.3319,3.3324,3.3312,3.3309,3.3314,3.3407,3.341,3.3412,3.3413,0,3.295,3.2945,3.2992,3.3038,3.3077,3.3113,3.3145,3.3174,3.3161,3.3201,3.3259,3.3292,3.3357,3.3411,3.3457,3.3471,3.344,3.3437,3.3456,3.3462,3.3463,3.3463,3.3219,3.3431,3.343,3.3428,3.3427,3.3427,3.3086,3.3136,3.3162,3.3216,3.3239,3.327,3.3318,3.3324,3.3372,3.3424,3.3411,3.3477,3.3504,3.3563,3.3582,3.3633,3.3603,3.3631,3.3637,3.3644,3.3653,3.3456,3.3641,3.3641,3.364,3.364,3.364,0,3.3269,3.3284,3.3334,3.338,3.3423,3.3392,3.3426,3.3463,3.3522,3.355,3.3593,3.366,3.3713,3.3723,3.3773,3.3812,3.38,3.3826,3.3822,3.3826,3.3677,3.3655,3.3835,3.3835,3.3835,3.3835,3.3835,3.3835,3.3369,3.3453,3.3451,3.3546,3.3561,3.3625,3.3648,3.3677,3.3699,3.3776,3.382,3.3826,3.3847,3.3899,3.3946,3.3948,3.3968,3.4,3.3996,3.3856,3.3836,3.3818,3.3797,3.4004,3.4004,3.414,3.4142,3.4143]},{"header":{"parameterUnit":"m.s-1","parameterCategory":1,"la1":30.2991,"la2":30.254,"lo1":-89.0895,"lo2":-89.0444,"dy":0.0017,"dx":0.0017,"nx":28,"ny":28,"refTime":"2023-07-28T21:00:00:Z","depth":0,"parameterNumber":3,"parameterNumberName":"V-component_of_WINDS"},"data":[0,0,0,0,0,0,0,0,0,0,0,0,0,0,0,0,0,0,0,0,0,0,0,0,0,0,0,0,0,0,0,0,0,0,0,0,0,0,0,0,0,0,0,0,0,0,0,0,0,0,0,0,0,0,0,0,0,0,-1.2674,-1.2674,0,-1.268,-1.268,-1.268,-1.2654,-1.2653,-1.2653,-1.2652,-1.2657,-1.2658,-1.2659,0,0,0,0,0,0,0,0,0,0,0,0,0,-1.264,-1.264,-1.2674,-1.2674,-1.2674,-1.268,-1.268,-1.268,-1.2654,-1.2653,-1.2652,-1.2651,-1.2657,-1.2658,-1.2659,0,0,0,0,0,0,0,0,0,0,0,0,0,-1.2651,-1.2641,-1.2674,-1.2662,-1.2661,-1.2679,-1.268,-1.268,-1.2654,-1.2653,-1.2652,-1.2651,-1.2656,-1.2658,-1.2659,-1.2689,0,0,-1.2663,-1.2663,0,0,0,0,0,0,0,0,-1.265,-1.2652,-1.2664,-1.2663,-1.2662,-1.2665,-1.2669,-1.2683,-1.2655,-1.2657,-1.2652,-1.265,-1.266,-1.2661,-1.2665,-1.2689,-1.2689,-1.2663,-1.2663,-1.2664,-1.2664,0,0,0,0,0,0,0,-1.265,-1.2652,-1.2676,-1.2664,-1.2663,-1.2656,-1.2656,-1.2672,-1.2665,-1.2656,-1.2655,-1.2656,-1.266,-1.2664,-1.2665,-1.2689,-1.2663,-1.2664,-1.2665,-1.2665,-1.2738,-1.2739,0,0,0,0,0,0,-1.265,-1.2651,-1.2676,-1.2676,-1.2653,-1.2657,-1.2658,-1.2665,-1.2665,-1.2663,-1.2657,-1.2655,-1.2662,-1.2663,-1.2665,-1.2699,-1.2664,-1.2665,-1.2666,-1.2737,-1.2738,-1.274,0,0,0,0,0,0,-1.265,-1.2653,-1.2676,-1.2663,-1.2666,-1.2659,-1.2667,-1.2666,-1.267,-1.2665,-1.2663,-1.2662,-1.2661,-1.2663,-1.2683,-1.2699,-1.2666,-1.2667,-1.2735,-1.2737,-1.2739,-1.2769,0,0,0,0,0,0,-1.2649,-1.2653,-1.2664,-1.2664,-1.2666,-1.2694,-1.2668,-1.2667,-1.2672,-1.2669,-1.2669,-1.2668,-1.266,-1.2681,-1.2684,-1.27,-1.2668,-1.2734,-1.2736,-1.2738,-1.2767,-1.2772,-1.2776,0,0,0,0,0,-1.2648,-1.2673,-1.2665,-1.2668,-1.2681,-1.2695,-1.2696,-1.2687,-1.2673,-1.2685,-1.2682,-1.2668,-1.2697,-1.2684,-1.2687,-1.2703,-1.2733,-1.2736,-1.2738,-1.2764,-1.2771,-1.2776,0,0,0,0,0,0,-1.2675,-1.2672,-1.2664,-1.2689,-1.2693,-1.2691,-1.2705,-1.2694,-1.2701,-1.2698,-1.2686,-1.2687,-1.2708,-1.2708,-1.2693,-1.2732,-1.2713,-1.2716,-1.2731,-1.2737,-1.2742,-1.2741,-1.2669,0,0,0,0,0,-1.2684,-1.2696,-1.2693,-1.2716,-1.2718,-1.2711,-1.2717,-1.2709,-1.2712,-1.2713,-1.2712,-1.2715,-1.2724,-1.2731,-1.274,-1.2767,-1.2766,-1.278,-1.2784,-1.2788,-1.2791,-1.2805,-1.2811,-1.2748,-1.2748,-1.2748,0,0,-1.2702,-1.2703,-1.2711,-1.2721,-1.2723,-1.2735,-1.2712,-1.2726,-1.2735,-1.2715,-1.2734,-1.2733,-1.2736,-1.2759,-1.2769,-1.2759,-1.2808,-1.2792,-1.2795,-1.2796,-1.2808,-1.2814,-1.2819,-1.275,-1.275,-1.275,0,0,-1.2742,-1.2744,-1.2763,-1.2765,-1.2768,-1.2763,-1.2768,-1.2768,-1.2766,-1.2785,-1.277,-1.278,-1.2798,-1.28,-1.2803,-1.2844,-1.2832,-1.2847,-1.2872,-1.2885,-1.289,-1.2894,-1.2908,-1.2913,-1.285,-1.2851,-1.2851,0,-1.2765,-1.2783,-1.2773,-1.2788,-1.2793,-1.2776,-1.2795,-1.2797,-1.2803,-1.2806,-1.2795,-1.2816,-1.2817,-1.284,-1.285,-1.2854,-1.2858,-1.2847,-1.289,-1.2894,-1.2898,-1.2911,-1.2916,-1.2852,-1.2852,-1.2852,-1.2852,0,-1.281,-1.2823,-1.2838,-1.2843,-1.285,-1.2867,-1.2859,-1.2867,-1.2859,-1.2856,-1.2875,-1.2875,-1.2883,-1.2889,-1.2881,-1.2911,-1.2904,-1.2892,-1.2872,-1.2906,-1.2918,-1.2923,-1.2855,-1.2854,-1.2854,-1.2853,0,0,-1.2866,-1.2867,-1.2872,-1.2874,-1.2877,-1.2886,-1.2902,-1.2911,-1.2917,-1.2922,-1.2934,-1.2949,-1.2938,-1.2942,-1.2934,-1.2946,-1.2978,-1.2932,-1.2932,-1.294,-1.301,-1.3018,-1.3024,-1.297,-1.2971,-1.2972,-1.3009,0,-1.2904,-1.2931,-1.2923,-1.2951,-1.2962,-1.2946,-1.296,-1.2963,-1.296,-1.2969,-1.2966,-1.2977,-1.2961,-1.2963,-1.2975,-1.2972,-1.2992,-1.2969,-1.2981,-1.2982,-1.298,-1.3031,-1.304,-1.3075,-1.3014,-1.3015,-1.3015,0,-1.2952,-1.2959,-1.2987,-1.2987,-1.2992,-1.3004,-1.3011,-1.302,-1.3023,-1.302,-1.3025,-1.3015,-1.303,-1.3011,-1.3031,-1.3016,-1.3021,-1.302,-1.3021,-1.3021,-1.3,-1.3031,-1.3086,-1.309,-1.3023,-1.3022,-1.3022,0,-1.2989,-1.3005,-1.3024,-1.3027,-1.3027,-1.3036,-1.3037,-1.3039,-1.3044,-1.305,-1.3053,-1.3061,-1.3065,-1.3071,-1.3064,-1.3051,-1.3085,-1.3066,-1.3083,-1.3083,-1.3089,-1.3089,-1.3145,-1.3095,-1.3094,-1.3094,-1.3094,0,-1.3032,-1.3049,-1.304,-1.3052,-1.3071,-1.3062,-1.3081,-1.308,-1.3082,-1.3092,-1.308,-1.309,-1.308,-1.309,-1.3084,-1.3101,-1.3104,-1.3101,-1.3099,-1.3102,-1.3102,-1.3104,-1.3101,-1.3096,-1.3095,-1.3095,-1.3095,0,-1.3076,-1.307,-1.309,-1.3089,-1.3089,-1.3103,-1.3103,-1.3113,-1.311,-1.3123,-1.3126,-1.3121,-1.3131,-1.3125,-1.3135,-1.3131,-1.3154,-1.3149,-1.3153,-1.3151,-1.3168,-1.3166,-1.3226,-1.3233,-1.3179,-1.318,-1.318,0,-1.3103,-1.3116,-1.3117,-1.3123,-1.3125,-1.3135,-1.3141,-1.3132,-1.3138,-1.3142,-1.3152,-1.3162,-1.3168,-1.3186,-1.3183,-1.319,-1.3185,-1.3206,-1.3186,-1.3188,-1.3184,-1.3183,-1.3184,-1.3209,-1.321,-1.321,-1.3211,0,-1.3151,-1.3148,-1.3156,-1.3164,-1.3171,-1.3176,-1.3181,-1.3187,-1.3178,-1.3186,-1.3196,-1.3202,-1.3212,-1.3222,-1.3228,-1.3229,-1.3218,-1.3217,-1.3221,-1.3223,-1.3224,-1.3223,-1.3162,-1.3215,-1.3215,-1.3215,-1.3214,-1.3214,-1.3186,-1.3197,-1.3199,-1.3209,-1.3212,-1.3216,-1.3226,-1.3224,-1.3233,-1.3241,-1.3235,-1.3247,-1.325,-1.3258,-1.3259,-1.3269,-1.326,-1.3266,-1.3268,-1.3269,-1.3271,-1.3224,-1.327,-1.327,-1.327,-1.3269,-1.3269,0,-1.3233,-1.3234,-1.3243,-1.325,-1.3257,-1.3247,-1.3252,-1.3259,-1.327,-1.3273,-1.328,-1.3292,-1.3301,-1.3299,-1.3306,-1.3314,-1.331,-1.3316,-1.3315,-1.3315,-1.3279,-1.3274,-1.332,-1.332,-1.332,-1.332,-1.332,-1.332,-1.3258,-1.3276,-1.3273,-1.3291,-1.3292,-1.3304,-1.3307,-1.3311,-1.3313,-1.3327,-1.3335,-1.3333,-1.3334,-1.3342,-1.335,-1.3349,-1.3352,-1.336,-1.3358,-1.3323,-1.3318,-1.3313,-1.3308,-1.3361,-1.3361,-1.3393,-1.3393,-1.3394]}]]